Location: Ferchesar
(52.6477°N, 12.4298°E)
Time: 01:55:28
(UTC+01:00)

Transit 2A - Pass Details

Date: 11 December 2021
Orbit: 591 x 967 km, 66.7° (Epoch: 17 January)

Event Time Altitude Azimuth Distance (km) Brightness Sun altitude
Exits shadow 04:26:14 27° 7° (N) 1,766 7.9 -32.7°
Maximum altitude 04:27:08 28° 20° (NNE) 1,732 7.9 -32.6°
Drops below altitude 10° 04:32:31 10° 78° (ENE) 2,690 9.7 -31.8°
Sets 04:35:27 0° 90° (E) 3,605 10.6 -31.3°
